Weather History for KOTH - June, 2013

Change the Weather History Date:

Sunday, June 30, 2013

  Actual Average Record
Temperature  
Mean Temperature 70 °F 58 °F  
Max Temperature 79 °F 63 °F 79 °F (2013)
Min Temperature 61 °F 52 °F 39 °F (1919)
Degree Days  
Heating Degree Days 0 7  
Month to date heating degree days 171 267  
Since 1 June heating degree days 171 267  
Since 1 July heating degree days 4439 4827  
Cooling Degree Days 5 0  
Month to date cooling degree days 16 0  
Year to date cooling degree days 20 0  
Since 1 June cooling degree days 16 0  
Growing Degree Days 19 (Base 50)    
Moisture  
Dew Point 64 °F    
Average Humidity 89    
Maximum Humidity 100    
Minimum Humidity 67    
Precipitation  
Precipitation 0.00 in 0.03 in 0.32 in (1958)
Month to date precipitation 0.74 1.95  
Year to date precipitation 17.49 36.12  
Sea Level Pressure  
Sea Level Pressure 29.99 in    
Wind  
Wind Speed 6 mph (NNW)    
Max Wind Speed 10 mph    
Max Gust Speed -    
Visibility 9 miles    
Events      
T = Trace of Precipitation, MM = Missing Value Source: NWS Daily Summary

Daily Weather History Graph

Daily Weather History Graph

Search for Another Location

Airport or City:

Trip Planner

Search our weather history database for the weather conditions in past years. The results will help you decide how hot, cold, wet, or windy it might be!

Date:

Astronomy

Jun. 30, 2013 Rise Set
Actual Time 5:39 AM PDT 9:01 PM PDT
Civil Twilight 5:04 AM PDT 9:37 PM PDT
Nautical Twilight 4:17 AM PDT 10:23 PM PDT
Astronomical Twilight 3:20 AM PDT 11:20 PM PDT
Moon 12:50 AM PDT (6/30) 2:14 PM PDT (6/30)
Length of Visible Light 16h 32m
Length of Day
15h 21m
Last Quarter, 44% of the Moon is Illuminated
Jun 30
Last Quarter
Jul 8
New
Jul 15
First Quarter
Jul 22
Full
Jul 29
Last Quarter

Hourly Weather History & Observations

Time (PDT) Temp. Dew Point Humidity Pressure Visibility Wind Dir Wind Speed Gust Speed Precip Events Conditions
12:15 AM 62.6 °F 62.6 °F 100% 30.02 in 10.0 mi Calm Calm - N/A   Overcast
12:35 AM 62.6 °F 62.6 °F 100% 30.02 in 10.0 mi Calm Calm - N/A   Overcast
12:55 AM 62.6 °F 62.6 °F 100% 30.02 in 10.0 mi Calm Calm - N/A   Overcast
1:15 AM 62.6 °F 62.6 °F 100% 30.01 in 10.0 mi North 3.5 mph - N/A   Overcast
1:35 AM 62.6 °F 62.6 °F 100% 30.00 in 10.0 mi Calm Calm - N/A   Overcast
1:55 AM 62.6 °F 62.6 °F 100% 30.00 in 10.0 mi Calm Calm - N/A   Overcast
2:15 AM 62.6 °F 60.8 °F 94% 30.00 in 10.0 mi Calm Calm - N/A   Overcast
2:35 AM 62.6 °F 60.8 °F 94% 30.00 in 10.0 mi Calm Calm - N/A   Overcast
2:55 AM 62.6 °F 62.6 °F 100% 29.99 in 10.0 mi NNW 3.5 mph - N/A   Overcast
3:15 AM 62.6 °F 62.6 °F 100% 29.99 in 10.0 mi Calm Calm - N/A   Overcast
3:35 AM 62.6 °F 60.8 °F 94% 29.99 in 10.0 mi ENE 3.5 mph - N/A   Overcast
3:55 AM 62.6 °F 60.8 °F 94% 29.99 in 10.0 mi East 3.5 mph - N/A   Overcast
4:15 AM 60.8 °F 60.8 °F 100% 29.99 in 10.0 mi Calm Calm - N/A   Overcast
4:35 AM 60.8 °F 59.0 °F 94% 29.99 in 10.0 mi Calm Calm - N/A   Overcast
4:55 AM 60.8 °F 59.0 °F 94% 29.99 in 10.0 mi Calm Calm - N/A   Overcast
5:15 AM 60.8 °F 59.0 °F 94% 29.99 in 10.0 mi Calm Calm - N/A   Overcast
5:35 AM 60.8 °F 59.0 °F 94% 29.99 in 10.0 mi ESE 3.5 mph - N/A   Overcast
5:55 AM 60.8 °F 59.0 °F 94% 29.99 in 9.0 mi Calm Calm - N/A   Overcast
6:15 AM 60.8 °F 59.0 °F 94% 29.99 in 1.0 mi Calm Calm - N/A   Overcast
6:35 AM 60.8 °F 59.0 °F 94% 29.99 in 3.0 mi Calm Calm - N/A   Overcast
6:55 AM 60.8 °F 59.0 °F 94% 29.99 in 1.0 mi Calm Calm - N/A   Overcast
7:15 AM 60.8 °F 60.8 °F 100% 30.00 in 5.0 mi Calm Calm - N/A   Overcast
7:35 AM 60.8 °F 60.8 °F 100% 30.00 in 2.0 mi Calm Calm - N/A   Overcast
7:55 AM 60.8 °F 60.8 °F 100% 30.00 in 2.0 mi NNW 4.6 mph - N/A   Overcast
8:15 AM 62.6 °F 60.8 °F 94% 30.00 in 2.0 mi Calm Calm - N/A   Overcast
8:35 AM 60.8 °F 60.8 °F 100% 30.01 in 0.5 mi NW 5.8 mph - N/A   Overcast
8:55 AM 62.6 °F 60.8 °F 94% 30.01 in 2.0 mi NW 3.5 mph - N/A   Overcast
9:15 AM 62.6 °F 60.8 °F 94% 30.01 in 2.0 mi WNW 3.5 mph - N/A   Overcast
9:35 AM 62.6 °F 60.8 °F 94% 30.01 in 2.0 mi Calm Calm - N/A   Overcast
9:55 AM 64.4 °F 62.6 °F 94% 30.00 in 5.0 mi North 3.5 mph - N/A   Overcast
10:15 AM 64.4 °F 62.6 °F 94% 30.00 in 10.0 mi Calm Calm - N/A   Overcast
10:35 AM 66.2 °F 62.6 °F 88% 30.00 in 10.0 mi West 4.6 mph - N/A   Overcast
10:55 AM 66.2 °F 62.6 °F 88% 29.99 in 10.0 mi NW 8.1 mph - N/A   Mostly Cloudy
11:15 AM 68.0 °F 62.6 °F 83% 30.00 in 10.0 mi WNW 8.1 mph - N/A   Mostly Cloudy
11:35 AM 68.0 °F 62.6 °F 83% 29.99 in 10.0 mi NW 9.2 mph - N/A   Partly Cloudy
11:55 AM 68.0 °F 62.6 °F 83% 29.99 in 10.0 mi NW 10.4 mph - N/A   Clear
12:15 PM 75.2 °F 69.8 °F 83% 29.99 in 10.0 mi NW 10.4 mph - N/A   Clear
12:35 PM 71.6 °F 66.2 °F 83% 29.99 in 10.0 mi WNW 10.4 mph - N/A   Scattered Clouds
12:55 PM 73.4 °F 66.2 °F 78% 29.99 in 10.0 mi NNW 9.2 mph - N/A   Scattered Clouds
1:15 PM 73.4 °F 66.2 °F 78% 29.99 in 10.0 mi NNW 8.1 mph - N/A   Clear
1:35 PM 75.2 °F 66.2 °F 73% 29.99 in 10.0 mi North 8.1 mph - N/A   Clear
1:55 PM 77.0 °F 66.2 °F 69% 29.99 in 10.0 mi North 6.9 mph - N/A   Clear
2:15 PM 77.0 °F 66.2 °F 69% 29.98 in 10.0 mi NNW 8.1 mph - N/A   Clear
2:35 PM 77.0 °F 66.2 °F 69% 29.98 in 10.0 mi NW 12.7 mph - N/A   Clear
2:55 PM 75.2 °F 66.2 °F 73% 29.98 in 10.0 mi NNW 9.2 mph - N/A   Clear
3:15 PM 75.2 °F 66.2 °F 73% 29.98 in 10.0 mi North 9.2 mph - N/A   Clear
3:35 PM 75.2 °F 66.2 °F 73% 29.98 in 10.0 mi NNW 10.4 mph - N/A   Clear
3:55 PM 78.8 °F 68.0 °F 69% 29.98 in 10.0 mi NNW 9.2 mph - N/A   Clear
4:15 PM 75.2 °F 66.2 °F 73% 29.97 in 10.0 mi North 9.2 mph - N/A   Clear
4:35 PM 77.0 °F 66.2 °F 69% 29.97 in 10.0 mi NNW 9.2 mph - N/A   Clear
4:55 PM 78.8 °F 66.2 °F 65% 29.97 in 10.0 mi North 9.2 mph - N/A   Clear
5:15 PM 77.0 °F 66.2 °F 69% 29.97 in 10.0 mi North 6.9 mph - N/A   Clear
5:35 PM 77.0 °F 64.4 °F 65% 29.97 in 10.0 mi NNE 9.2 mph - N/A   Clear
5:55 PM 75.2 °F 66.2 °F 73% 29.97 in 10.0 mi NNW 9.2 mph - N/A   Clear
6:15 PM 73.4 °F 66.2 °F 78% 29.97 in 10.0 mi NNW 10.4 mph - N/A   Clear
6:35 PM 69.8 °F 68.0 °F 94% 29.98 in 10.0 mi North 8.1 mph - N/A   Mostly Cloudy
6:55 PM 69.8 °F 66.2 °F 88% 29.98 in 9.0 mi NNW 10.4 mph - N/A   Overcast
7:15 PM 69.8 °F 66.2 °F 88% 29.98 in 10.0 mi NNW 11.5 mph - N/A   Overcast
7:35 PM 69.8 °F 66.2 °F 88% 29.98 in 10.0 mi NNW 10.4 mph - N/A   Mostly Cloudy
7:55 PM 69.8 °F 66.2 °F 88% 29.98 in 10.0 mi NNW 8.1 mph - N/A   Partly Cloudy
8:15 PM 69.8 °F 66.2 °F 88% 29.98 in 10.0 mi North 5.8 mph - N/A   Mostly Cloudy
8:35 PM 69.8 °F 66.2 °F 88% 29.98 in 10.0 mi North 5.8 mph - N/A   Mostly Cloudy
8:55 PM 69.8 °F 66.2 °F 88% 29.97 in 10.0 mi North 5.8 mph - N/A   Mostly Cloudy
9:15 PM 68.0 °F 66.2 °F 94% 29.97 in 10.0 mi North 4.6 mph - N/A   Partly Cloudy
9:35 PM 66.2 °F 64.4 °F 94% 29.97 in 10.0 mi North 4.6 mph - N/A   Clear
9:55 PM 66.2 °F 66.2 °F 100% 29.97 in 10.0 mi North 5.8 mph - N/A   Clear
10:15 PM 66.2 °F 64.4 °F 94% 29.97 in 10.0 mi NNE 6.9 mph - N/A   Clear
10:35 PM 64.4 °F 62.6 °F 94% 29.98 in 10.0 mi North 6.9 mph - N/A   Clear
10:55 PM 64.4 °F 64.4 °F 100% 29.98 in 10.0 mi North 6.9 mph - N/A   Clear
11:15 PM 64.4 °F 64.4 °F 100% 29.98 in 10.0 mi North 5.8 mph - N/A   Clear
11:35 PM 66.2 °F 66.2 °F 100% 29.98 in 10.0 mi NNE 8.1 mph - N/A   Partly Cloudy
11:55 PM 66.2 °F 64.4 °F 94% 29.99 in 10.0 mi NNE 6.9 mph - N/A   Clear